Flag for Canada Weather past 2 weeks in Campbell River, British Columbia, Canada

Now
50 °F

Light rain. Fog.


Feels Like: 44 °F
Forecast: 48 / 55 °F
Wind: 17 mph from Southeast

Location: Campbell River Airport

Current Time: Apr 27, 2015 at 10:17:57 AM

Latest Report: Apr 27, 2015 at 10:00 AM


Visibility: 5 mi

Pressure: 30.19 "Hg

Humidity: 94%

Dew point: 48 °F

Location of Campbell RiverLocation

Historic Weather in Campbell River — Graph

°F

Campbell River temperature yesterday

Maximum temperature yesterday: 52 °F (at 1:00 PM)
Minimum temperature yesterday: 46 °F (at 6:00 AM)
Average temperature yesterday: 50 °F

Past Weeks' High & Low Weather Summary

 TemperatureHumidityPressure
High72 °F (Apr 20, 4:00 PM)100% (Apr 14, 7:00 AM)30.51 "Hg (Apr 14, 7:00 AM)
Low30 °F (Apr 14, 6:00 AM)28% (Apr 18, 9:00 PM)29.66 "Hg (Apr 23, 5:00 PM)
Average49 °F69%30.10 "Hg
* Reported Apr 12 9:00 AM — Apr 27 9:00 AM, Campbell River, Weather by CustomWeather, © 2015

Note: Actual official high and low records may vary slightly from our data, if they occured in-between our weather recording intervals... More about our weather records

Advertising

Campbell River weather history for previous 24 hours

 ConditionsComfort  
Time TempWeatherWind HumidityBarometerVisibility
9:00 AM
Mon, Apr 27
50 °FLight rain. Fog.14 mph94%30.19 "Hg4 mi
8:00 AM48 °FLight rain. Fog.13 mph94%30.19 "Hg4 mi
7:00 AM48 °FMostly cloudy.13 mph94%30.19 "Hg7 mi
6:00 AM48 °FLight rain. Mostly cloudy.14 mph94%30.19 "Hg15 mi
9:00 PM
Sun, Apr 26
48 °FMore clouds than sun.9 mph82%30.18 "Hg15 mi
8:00 PM50 °FMore clouds than sun.13 mph76%30.16 "Hg15 mi
7:00 PM50 °FMore clouds than sun.13 mph76%30.16 "Hg15 mi
6:00 PM52 °FMore clouds than sun.13 mph67%30.17 "Hg15 mi
5:00 PM52 °FCloudy.18 mph67%30.17 "Hg15 mi
4:00 PM52 °FCloudy.13 mph67%30.17 "Hg15 mi
3:00 PM52 °FScattered showers. Cloudy.16 mph62%30.16 "Hg15 mi
2:00 PM52 °FCloudy.16 mph67%30.16 "Hg20 mi
1:00 PM52 °FMore clouds than sun.15 mph67%30.15 "Hg20 mi
12:00 PM50 °FOvercast.13 mph76%30.14 "Hg20 mi
11:00 AM50 °FOvercast.15 mph76%30.14 "Hg30 mi
10:00 AM48 °FOvercast.18 mph82%30.13 "Hg30 mi
Weather by CustomWeather, © 2015

See weather overviewHow to use our weather pages